[[[{"header":{"parameterUnit":"kt","parameterCategory":2,"dx":1,"dy":1,"la1":30.253999710083008,"la2":30.299108505249023,"lo1":-89.0895004272461,"lo2":-89.04439544677734,"nx":28,"ny":28,"refTime":"2022-10-13T21:00:00:Z","depth":"0","parameterNumber":2,"parameterNumberName":"U-component_of_CURRENTS"},"data":[0.2127,0.1935,0.1884,0.1512,0.1334,0.1092,0.1034,0.1047,0.1097,0.1227,0.1392,0.1566,0.1982,0.2499,0.285,0.2941,0.2942,0.3005,0.2934,0.2936,0.2919,0.2903,0.2932,0.3059,0.3059,0.3042,0.3041,0.3041,0.2246,0.215,0.1967,0.1709,0.1494,0.1456,0.1346,0.1305,0.129,0.1365,0.1462,0.1791,0.2066,0.238,0.2709,0.2829,0.2911,0.2886,0.2908,0.287,0.2842,0.2875,0.2992,0.2992,0.2992,0.2992,0.2992,0.2992,0.242,0.2306,0.2154,0.1957,0.1774,0.1614,0.1522,0.1495,0.1462,0.1486,0.1639,0.1755,0.2053,0.2338,0.2473,0.2736,0.2618,0.2746,0.2675,0.2675,0.2678,0.2637,0.2687,0.2686,0.2686,0.2685,0.2685,0,0.2544,0.2497,0.2368,0.2139,0.1991,0.1843,0.1731,0.1698,0.1697,0.1711,0.1765,0.1837,0.2051,0.2219,0.2379,0.2461,0.2504,0.2512,0.2564,0.2615,0.264,0.2633,0.2557,0.2573,0.2571,0.257,0.2569,0.2569,0.2713,0.2619,0.2423,0.2301,0.2223,0.2071,0.1962,0.1942,0.1886,0.1912,0.188,0.1981,0.2037,0.2181,0.2316,0.2412,0.2409,0.2476,0.2494,0.2562,0.2522,0.2529,0.2511,0.2553,0.2555,0.2557,0.2558,0,0.2818,0.2741,0.2551,0.2397,0.235,0.2217,0.2098,0.2013,0.2018,0.1955,0.1958,0.2031,0.2113,0.2192,0.2256,0.2293,0.2363,0.2359,0.2421,0.2445,0.2555,0.2508,0.2529,0.2511,0.2406,0.2407,0.2408,0,0.2932,0.2803,0.2692,0.2583,0.2411,0.2338,0.2195,0.2145,0.2104,0.204,0.21,0.2092,0.2176,0.2211,0.2256,0.2319,0.229,0.236,0.2377,0.2427,0.2436,0.246,0.2414,0.2312,0.2312,0.2312,0.2312,0,0.309,0.2896,0.2738,0.2661,0.2491,0.2415,0.2339,0.2247,0.2187,0.2174,0.2165,0.217,0.2189,0.2215,0.228,0.2289,0.2312,0.2327,0.2376,0.238,0.2395,0.2402,0.2483,0.2313,0.2313,0.2313,0.2313,0,0.3182,0.3078,0.2857,0.2723,0.2659,0.2544,0.2401,0.2305,0.2252,0.2244,0.2236,0.2259,0.2246,0.2296,0.2304,0.2317,0.2335,0.2357,0.2358,0.2359,0.2394,0.2458,0.2483,0.2544,0.2383,0.2383,0.2384,0,0.3383,0.3165,0.311,0.29,0.2765,0.2714,0.2599,0.2503,0.2467,0.2404,0.2413,0.2349,0.238,0.2371,0.2368,0.2387,0.2372,0.2383,0.2355,0.2353,0.2411,0.2425,0.2484,0.2486,0.2389,0.2389,0.2388,0,0.3518,0.3353,0.332,0.3241,0.307,0.2959,0.2837,0.2704,0.2652,0.2573,0.2508,0.2409,0.2449,0.2379,0.2373,0.236,0.2383,0.2372,0.237,0.2387,0.2379,0.2427,0.2428,0.2402,0.2401,0.24,0.2393,0,0.3614,0.3515,0.3441,0.3286,0.3181,0.3049,0.2949,0.2875,0.2845,0.2785,0.2695,0.2627,0.2515,0.2497,0.2461,0.2402,0.2406,0.2409,0.2368,0.237,0.2367,0.2364,0.2381,0.238,0.2379,0.2378,0,0,0.3798,0.3655,0.3601,0.3476,0.3379,0.3335,0.3194,0.3116,0.2949,0.2909,0.2919,0.2722,0.263,0.2505,0.2503,0.2448,0.2443,0.2367,0.2366,0.2366,0.2365,0.2362,0.2361,0.2376,0.2376,0.2376,0.2375,0,0.3815,0.3753,0.3657,0.3556,0.3424,0.3346,0.3322,0.3168,0.3117,0.2968,0.2948,0.2887,0.2649,0.2582,0.2513,0.2446,0.2387,0.2405,0.2364,0.2359,0.236,0.236,0.2358,0.2357,0.2373,0.2373,0.2373,0,0.3898,0.3825,0.3772,0.3616,0.3517,0.3384,0.3391,0.3265,0.3171,0.3106,0.2944,0.2897,0.2761,0.2617,0.2544,0.2514,0.2341,0.2347,0.2351,0.2313,0.2306,0.2306,0.2307,0.2303,0.2303,0.2303,0,0,0.3922,0.3845,0.3708,0.3609,0.355,0.3433,0.3359,0.3302,0.3185,0.3135,0.3014,0.2895,0.2791,0.2693,0.2574,0.2405,0.2381,0.2343,0.2346,0.2349,0.2315,0.2307,0.2307,0.2304,0.2304,0.2304,0,0,0.3922,0.3787,0.3771,0.3644,0.3531,0.3371,0.3292,0.3261,0.3139,0.3141,0.3019,0.2977,0.2848,0.2738,0.277,0.2537,0.2521,0.2509,0.2596,0.2598,0.2601,0.2597,0.268,0,0,0,0,0,0.3892,0.3809,0.3797,0.3762,0.3546,0.3386,0.3352,0.3261,0.328,0.3217,0.3133,0.3053,0.2743,0.2767,0.2716,0.2655,0.2315,0.2313,0.2311,0.2386,0.239,0.2393,0,0,0,0,0,0,0.3878,0.3838,0.3798,0.3644,0.3594,0.3388,0.3391,0.3362,0.3283,0.3278,0.3078,0.3046,0.2944,0.2783,0.2739,0.2684,0.2694,0.2314,0.2312,0.2311,0.2387,0.239,0.2393,0,0,0,0,0,0.3867,0.3834,0.3522,0.3642,0.3599,0.3459,0.3394,0.3369,0.3302,0.3125,0.3093,0.3243,0.2946,0.2901,0.2756,0.2708,0.2724,0.2708,0.2313,0.2312,0.2311,0.2389,0,0,0,0,0,0,0.3858,0.3793,0.351,0.3492,0.3676,0.3467,0.3435,0.3377,0.315,0.312,0.3283,0.3281,0.2945,0.2911,0.2877,0.2724,0.2748,0.2731,0.2721,0.2312,0.2311,0.231,0,0,0,0,0,0,0.381,0.3779,0.35,0.3548,0.3534,0.3475,0.3447,0.3273,0.3147,0.3318,0.3311,0.3285,0.2989,0.2917,0.289,0.2623,0.2766,0.2751,0.274,0.2733,0.2311,0.231,0,0,0,0,0,0,0.3795,0.3767,0.3552,0.3542,0.3529,0.3314,0.3316,0.3093,0.3215,0.3328,0.3221,0.3224,0.2996,0.2967,0.29,0.2644,0.2628,0.2765,0.2755,0.2748,0.2743,0,0,0,0,0,0,0,0.3782,0.3997,0.3624,0.3536,0.3525,0.3325,0.3319,0.3314,0.3215,0.3218,0.322,0.3223,0.2854,0.2837,0.282,0.2662,0,0,0.2767,0.276,0,0,0,0,0,0,0,0,0.4005,0.3999,0.3624,0.362,0.3617,0.3324,0.3319,0.3315,0.3216,0.3218,0.322,0.3222,0.285,0.2836,0.2822,0,0,0,0,0,0,0,0,0,0,0,0,0,0,0,0.3623,0.3621,0,0.3323,0.332,0.3316,0.3216,0.3218,0.3219,0.3221,0.2846,0.2835,0.2823,0,0,0,0,0,0,0,0,0,0,0,0,0,0,0,0,0,0,0,0,0,0,0,0,0,0,0,0,0,0,0,0,0,0,0,0,0,0,0,0,0,0,0,0,0,0,0,0,0,0,0,0,0,0,0,0,0,0,0,0,0,0,0,0,0,0,0,0,0]}],[{"header":{"parameterUnit":"kt","parameterCategory":2,"dx":1,"dy":1,"la1":30.253999710083008,"la2":30.299108505249023,"lo1":-89.0895004272461,"lo2":-89.04439544677734,"nx":28,"ny":28,"refTime":"2022-10-13T21:00:00:Z","depth":"0","parameterNumber":3,"parameterNumberName":"V-component_of_CURRENTS"},"data":[-0.4885,-0.4736,-0.4665,-0.4461,-0.4358,-0.4137,-0.404,-0.3936,-0.3842,-0.3637,-0.3472,-0.3355,-0.2964,-0.288,-0.2734,-0.2829,-0.2873,-0.3012,-0.2998,-0.2988,-0.303,-0.3071,-0.3001,-0.2666,-0.2666,-0.2918,-0.2918,-0.2919,-0.4941,-0.4812,-0.4697,-0.4528,-0.442,-0.4357,-0.4209,-0.4117,-0.3995,-0.3874,-0.3786,-0.3615,-0.3532,-0.3472,-0.3384,-0.3328,-0.352,-0.3289,-0.3436,-0.3454,-0.3592,-0.3535,-0.3308,-0.3308,-0.3308,-0.3308,-0.3308,-0.3309,-0.4945,-0.486,-0.4743,-0.4645,-0.4523,-0.4394,-0.4297,-0.4209,-0.41,-0.3933,-0.3925,-0.3783,-0.3724,-0.3792,-0.3838,-0.3761,-0.3964,-0.375,-0.3749,-0.3906,-0.385,-0.3983,-0.3922,-0.3923,-0.3923,-0.3924,-0.3924,0,-0.4935,-0.4886,-0.4814,-0.4673,-0.4579,-0.4467,-0.4361,-0.4304,-0.4185,-0.41,-0.3983,-0.3912,-0.3894,-0.391,-0.3965,-0.4039,-0.4105,-0.4148,-0.3959,-0.391,-0.3984,-0.3978,-0.4221,-0.4193,-0.4196,-0.4197,-0.4199,-0.42,-0.4919,-0.4889,-0.4749,-0.4676,-0.463,-0.4538,-0.4456,-0.437,-0.4297,-0.4149,-0.4098,-0.4048,-0.3972,-0.4013,-0.4131,-0.4221,-0.4215,-0.4201,-0.4265,-0.4021,-0.4003,-0.413,-0.4118,-0.4224,-0.4221,-0.4218,-0.4216,0,-0.491,-0.4835,-0.4765,-0.465,-0.4617,-0.4562,-0.4431,-0.4376,-0.4307,-0.4211,-0.4194,-0.4139,-0.4133,-0.4192,-0.4293,-0.4341,-0.4341,-0.4399,-0.4302,-0.4298,-0.4078,-0.4052,-0.4112,-0.409,-0.4361,-0.4359,-0.4357,0,-0.485,-0.482,-0.4714,-0.4673,-0.4602,-0.4527,-0.4457,-0.441,-0.4333,-0.4258,-0.4264,-0.4198,-0.4296,-0.4305,-0.4386,-0.4399,-0.4462,-0.4458,-0.4467,-0.443,-0.4415,-0.4239,-0.4206,-0.4609,-0.4609,-0.4609,-0.4609,0,-0.4837,-0.4758,-0.4697,-0.4652,-0.4538,-0.4512,-0.4456,-0.438,-0.4331,-0.4304,-0.4256,-0.4293,-0.4282,-0.4371,-0.4401,-0.4433,-0.4463,-0.4526,-0.4478,-0.4469,-0.4421,-0.4405,-0.4248,-0.4609,-0.4609,-0.4609,-0.4609,0,-0.4801,-0.4755,-0.4672,-0.4596,-0.4562,-0.4511,-0.4421,-0.4375,-0.4328,-0.4302,-0.4299,-0.4296,-0.4316,-0.4345,-0.4415,-0.4402,-0.4461,-0.4488,-0.449,-0.437,-0.4374,-0.4344,-0.4339,-0.4146,-0.4496,-0.4496,-0.4495,0,-0.4824,-0.4746,-0.4687,-0.4618,-0.4562,-0.4488,-0.4437,-0.4378,-0.4347,-0.4314,-0.4326,-0.431,-0.4331,-0.4331,-0.4375,-0.4406,-0.4445,-0.4422,-0.4474,-0.4474,-0.4391,-0.4399,-0.4349,-0.4336,-0.4487,-0.4488,-0.4489,0,-0.4824,-0.4715,-0.4711,-0.4676,-0.4563,-0.4512,-0.4465,-0.4399,-0.4378,-0.4339,-0.4319,-0.433,-0.4333,-0.4328,-0.4338,-0.4369,-0.4428,-0.4385,-0.4387,-0.4396,-0.4509,-0.44,-0.4395,-0.4481,-0.4482,-0.4484,-0.4482,0,-0.4762,-0.4733,-0.4719,-0.4636,-0.4578,-0.4527,-0.4444,-0.4415,-0.4389,-0.4349,-0.4345,-0.4338,-0.4324,-0.4332,-0.4331,-0.4366,-0.4352,-0.4378,-0.4372,-0.4389,-0.438,-0.4385,-0.4313,-0.4312,-0.4311,-0.4311,0,0,-0.48,-0.4738,-0.4681,-0.4641,-0.4587,-0.4524,-0.4471,-0.4435,-0.4361,-0.4353,-0.4348,-0.432,-0.4328,-0.433,-0.4327,-0.4328,-0.4338,-0.4309,-0.4366,-0.4372,-0.4378,-0.4372,-0.4378,-0.431,-0.4309,-0.4309,-0.4309,0,-0.4758,-0.4715,-0.4694,-0.4634,-0.4563,-0.4506,-0.45,-0.4408,-0.4389,-0.4351,-0.4346,-0.4354,-0.4323,-0.4318,-0.4316,-0.4319,-0.4327,-0.4315,-0.4306,-0.4359,-0.4367,-0.4373,-0.4369,-0.4374,-0.4307,-0.4307,-0.4307,0,-0.4728,-0.4688,-0.4661,-0.4584,-0.4533,-0.4472,-0.4448,-0.4403,-0.4368,-0.4355,-0.4323,-0.4325,-0.4312,-0.4303,-0.4304,-0.4293,-0.4311,-0.4294,-0.4296,-0.4277,-0.4331,-0.4338,-0.4345,-0.4267,-0.4267,-0.4267,0,0,-0.4715,-0.4685,-0.4588,-0.4568,-0.4535,-0.4463,-0.4435,-0.4395,-0.4356,-0.4346,-0.4326,-0.4311,-0.431,-0.4307,-0.4295,-0.429,-0.4292,-0.4292,-0.4294,-0.4296,-0.4278,-0.4332,-0.4338,-0.4268,-0.4268,-0.4268,0,0,-0.4702,-0.4603,-0.4576,-0.4541,-0.448,-0.439,-0.4379,-0.435,-0.4328,-0.4334,-0.4316,-0.4314,-0.4324,-0.4303,-0.4312,-0.4295,-0.4282,-0.428,-0.4319,-0.4321,-0.4323,-0.4305,-0.4301,0,0,0,0,0,-0.462,-0.4612,-0.4588,-0.4571,-0.4467,-0.4398,-0.4383,-0.4337,-0.4338,-0.433,-0.4316,-0.4318,-0.4292,-0.4299,-0.4299,-0.4312,-0.4276,-0.4275,-0.4273,-0.4322,-0.4324,-0.4326,0,0,0,0,0,0,-0.4613,-0.4592,-0.4588,-0.4499,-0.4474,-0.4398,-0.4374,-0.436,-0.4338,-0.4336,-0.4316,-0.4316,-0.4297,-0.43,-0.4299,-0.4312,-0.4302,-0.4275,-0.4274,-0.4273,-0.4322,-0.4324,-0.4326,0,0,0,0,0,-0.4607,-0.459,-0.4438,-0.4498,-0.4477,-0.4407,-0.4375,-0.4364,-0.4351,-0.4316,-0.4313,-0.4321,-0.4296,-0.4297,-0.4299,-0.4312,-0.4302,-0.4302,-0.4275,-0.4274,-0.4273,-0.4323,0,0,0,0,0,0,-0.4602,-0.4577,-0.4433,-0.4424,-0.451,-0.4411,-0.4395,-0.4367,-0.4334,-0.4328,-0.432,-0.4318,-0.4296,-0.4296,-0.4296,-0.4313,-0.4302,-0.4302,-0.4302,-0.4274,-0.4273,-0.4273,0,0,0,0,0,0,-0.4585,-0.457,-0.4428,-0.4445,-0.4438,-0.4415,-0.4401,-0.4397,-0.4337,-0.4341,-0.4337,-0.432,-0.4326,-0.4296,-0.4296,-0.4288,-0.4303,-0.4302,-0.4302,-0.4302,-0.4273,-0.4273,0,0,0,0,0,0,-0.4578,-0.4565,-0.4447,-0.4442,-0.4436,-0.4335,-0.4414,-0.4329,-0.4291,-0.4345,-0.4292,-0.4293,-0.4328,-0.4325,-0.4295,-0.4287,-0.4287,-0.4303,-0.4302,-0.4302,-0.4302,0,0,0,0,0,0,0,-0.4572,-0.4674,-0.4484,-0.4439,-0.4434,-0.4343,-0.4341,-0.4339,-0.4291,-0.4292,-0.4292,-0.4293,-0.4304,-0.4304,-0.4303,-0.4286,0,0,-0.4303,-0.4302,0,0,0,0,0,0,0,0,-0.4678,-0.4675,-0.4484,-0.4482,-0.448,-0.4343,-0.4341,-0.4339,-0.4291,-0.4291,-0.4292,-0.4293,-0.4304,-0.4304,-0.4303,0,0,0,0,0,0,0,0,0,0,0,0,0,0,0,-0.4483,-0.4482,0,-0.4343,-0.4341,-0.434,-0.4291,-0.4291,-0.4292,-0.4292,-0.4304,-0.4304,-0.4303,0,0,0,0,0,0,0,0,0,0,0,0,0,0,0,0,0,0,0,0,0,0,0,0,0,0,0,0,0,0,0,0,0,0,0,0,0,0,0,0,0,0,0,0,0,0,0,0,0,0,0,0,0,0,0,0,0,0,0,0,0,0,0,0,0,0,0,0,0]}]],[[{"header":{"parameterUnit":"kt","parameterCategory":2,"dx":1,"dy":1,"la1":30.253999710083008,"la2":30.299108505249023,"lo1":-89.0895004272461,"lo2":-89.04439544677734,"nx":28,"ny":28,"refTime":"2022-10-13T21:00:00:Z","depth":"2","parameterNumber":2,"parameterNumberName":"U-component_of_CURRENTS"},"data":[0.2053,0.1993,0.2014,0.1951,0.199,0.1885,0.1797,0.1652,0.15,0.1045,0.0823,0.0841,0.0598,0.0435,0.0368,0.0386,0.0725,0.0358,0.0722,0.1076,0.115,0.129,0.1235,0,0,0,0,0,0.2185,0.2211,0.2228,0.2202,0.2163,0.2217,0.2074,0.1954,0.177,0.164,0.1523,0.0947,0.0791,0.0759,0.0655,0.0583,0.0732,0.0633,0.0877,0.0949,0.1018,0.0945,0.0283,0.0284,0.0285,0.0286,0,0,0.2368,0.2362,0.2378,0.2383,0.2377,0.2291,0.221,0.213,0.2006,0.1891,0.1858,0.163,0.1444,0.1129,0.113,0.119,0.1289,0.1317,0.1359,0.1408,0.1335,0.1226,0.0787,0.079,0.0793,0.0795,0.0798,0,0.2433,0.2472,0.2489,0.2506,0.2487,0.2453,0.2408,0.2336,0.2322,0.2272,0.2154,0.2066,0.1935,0.176,0.1679,0.1647,0.2058,0.1847,0.2479,0.2075,0.1982,0.1971,0.2018,0.1702,0.1711,0.1717,0.1722,0.1725,0.2469,0.2501,0.2567,0.2565,0.2592,0.259,0.2564,0.2589,0.2541,0.253,0.2485,0.2498,0.2411,0.237,0.2371,0.2319,0.262,0.2067,0.2114,0.2635,0.2616,0.264,0.266,0.1819,0.1807,0.1797,0.1789,0,0.2464,0.2525,0.2577,0.2636,0.2642,0.2654,0.2649,0.2629,0.2682,0.2655,0.2678,0.2786,0.2789,0.294,0.3024,0.3001,0.2968,0.2883,0.2621,0.2542,0.2718,0.2725,0.2488,0.2475,0.2465,0.2456,0.2448,0,0.2473,0.2521,0.2584,0.262,0.264,0.2699,0.2709,0.2771,0.2803,0.2792,0.2949,0.2935,0.3174,0.3207,0.329,0.3174,0.3323,0.312,0.3072,0.2904,0.2861,0.3492,0.3498,0.3456,0.3457,0.3458,0.346,0,0.2423,0.2542,0.2599,0.2635,0.2716,0.2745,0.2783,0.2871,0.2893,0.2988,0.2984,0.3145,0.3203,0.3271,0.3379,0.3428,0.3405,0.3469,0.317,0.3147,0.2935,0.289,0.3461,0.3461,0.3462,0.3462,0.3463,0,0.2436,0.2488,0.2596,0.2635,0.2663,0.2732,0.2789,0.2875,0.2978,0.3026,0.3133,0.3219,0.3356,0.3403,0.3507,0.3527,0.3528,0.3558,0.3552,0.3279,0.3246,0.2807,0.2705,0.3441,0.3442,0.3443,0.3444,0,0.2329,0.2454,0.2502,0.2616,0.2672,0.2737,0.2818,0.292,0.2993,0.3059,0.3199,0.3313,0.3432,0.3479,0.3537,0.3623,0.3604,0.3655,0.3571,0.3567,0.3214,0.3184,0.2947,0.2744,0.3455,0.3454,0.3453,0,0.224,0.2358,0.2386,0.2406,0.2547,0.2611,0.2741,0.2851,0.2878,0.3061,0.3099,0.3382,0.3409,0.3509,0.3609,0.364,0.3614,0.3652,0.3653,0.349,0.3545,0.3236,0.3198,0.3641,0.3641,0.3641,0.3462,0,0.2155,0.2233,0.23,0.2392,0.2475,0.2586,0.2668,0.277,0.283,0.2896,0.308,0.3255,0.3406,0.3488,0.3572,0.3668,0.3624,0.3661,0.3583,0.3659,0.3575,0.3568,0.366,0.3661,0.3661,0.3662,0,0,0.2019,0.2103,0.2157,0.2245,0.2304,0.2379,0.2467,0.2567,0.276,0.281,0.2833,0.3149,0.3288,0.3459,0.3521,0.362,0.3584,0.3572,0.3662,0.3662,0.3662,0.3583,0.3576,0.3662,0.3663,0.3663,0.3663,0,0.1965,0.2019,0.2095,0.2173,0.2293,0.2347,0.2385,0.2518,0.258,0.2773,0.2838,0.299,0.3248,0.3338,0.3419,0.3611,0.3547,0.367,0.3662,0.3665,0.3665,0.3664,0.3586,0.3579,0.3664,0.3664,0.3664,0,0.1857,0.1904,0.1946,0.2069,0.2154,0.2249,0.2248,0.2388,0.2466,0.2557,0.274,0.2864,0.3026,0.3218,0.3318,0.3292,0.3485,0.3504,0.3508,0.3495,0.3495,0.3498,0.35,0.345,0.3449,0.3447,0,0,0.1811,0.1875,0.1957,0.2058,0.2106,0.2202,0.2283,0.2329,0.2465,0.2534,0.2651,0.2802,0.2956,0.305,0.321,0.3406,0.3377,0.3468,0.3479,0.3486,0.3478,0.3481,0.3486,0.3441,0.3441,0.3441,0,0,0.1794,0.186,0.1864,0.1974,0.2076,0.2193,0.2293,0.2323,0.2492,0.2509,0.2599,0.2643,0.2855,0.2945,0.2852,0.3154,0.3126,0.3151,0.3054,0.3068,0.3079,0.3015,0.2812,0,0,0,0,0,0.1757,0.1842,0.1844,0.187,0.2036,0.2182,0.2215,0.229,0.2279,0.2361,0.2492,0.2488,0.2913,0.2833,0.2881,0.2927,0.336,0.3374,0.3388,0.3314,0.3328,0.334,0,0,0,0,0,0,0.1767,0.1793,0.1843,0.1947,0.1987,0.2178,0.214,0.2165,0.2272,0.2276,0.2464,0.2492,0.2553,0.2811,0.2854,0.2896,0.2798,0.3365,0.3377,0.3388,0.3319,0.333,0.334,0,0,0,0,0,0.1776,0.1797,0.2026,0.195,0.1985,0.2105,0.2137,0.2157,0.2256,0.2386,0.2415,0.2308,0.2552,0.2596,0.2837,0.2874,0.2768,0.2784,0.3373,0.3383,0.3391,0.3325,0,0,0,0,0,0,0.1782,0.1842,0.2037,0.2054,0.1913,0.2099,0.2123,0.215,0.2363,0.239,0.223,0.223,0.2553,0.2587,0.2621,0.2861,0.2744,0.276,0.277,0.3381,0.3388,0.3395,0,0,0,0,0,0,0.1831,0.1854,0.2046,0.1993,0.2005,0.2093,0.2114,0.2289,0.2366,0.2197,0.2202,0.2227,0.2513,0.2581,0.2608,0.2879,0.2726,0.2741,0.2752,0.2759,0.3387,0.3393,0,0,0,0,0,0,0.1844,0.1865,0.199,0.1999,0.2009,0.2207,0.2255,0.2429,0.229,0.2188,0.2282,0.2278,0.2507,0.2535,0.2598,0.2858,0.2874,0.2726,0.2737,0.2744,0.2749,0,0,0,0,0,0,0,0.1855,0.1678,0.1932,0.2004,0.2013,0.2208,0.2213,0.2218,0.2289,0.2286,0.2283,0.228,0.2637,0.2654,0.2671,0.2841,0,0,0.2725,0.2732,0,0,0,0,0,0,0,0,0.1673,0.1677,0.1932,0.1935,0.1938,0.2208,0.2213,0.2217,0.2289,0.2286,0.2284,0.2281,0.2642,0.2656,0.267,0,0,0,0,0,0,0,0,0,0,0,0,0,0,0,0.1932,0.1935,0,0.2209,0.2212,0.2216,0.2288,0.2286,0.2284,0.2282,0.2646,0.2657,0.2668,0,0,0,0,0,0,0,0,0,0,0,0,0,0,0,0,0,0,0,0,0,0,0,0,0,0,0,0,0,0,0,0,0,0,0,0,0,0,0,0,0,0,0,0,0,0,0,0,0,0,0,0,0,0,0,0,0,0,0,0,0,0,0,0,0,0,0,0,0]}],[{"header":{"parameterUnit":"kt","parameterCategory":2,"dx":1,"dy":1,"la1":30.253999710083008,"la2":30.299108505249023,"lo1":-89.0895004272461,"lo2":-89.04439544677734,"nx":28,"ny":28,"refTime":"2022-10-13T21:00:00:Z","depth":"2","parameterNumber":3,"parameterNumberName":"V-component_of_CURRENTS"},"data":[0.1944,0.1969,0.1951,0.1686,0.1432,0.1286,0.1313,0.1505,0.1578,0.1729,0.1695,0.1446,0.1204,0.0951,0.0675,0.0584,0.0699,0.0564,0.0867,0.0913,0.094,0.0927,0.0955,0,0,0,0,0,0.1882,0.1843,0.1755,0.1633,0.1464,0.1342,0.1459,0.1588,0.1683,0.1692,0.1706,0.1608,0.1265,0.1099,0.0878,0.0715,0.0724,0.0707,0.0715,0.0743,0.0769,0.0769,0.0485,0.0485,0.0484,0.0484,0,0,0.1798,0.1796,0.1748,0.1624,0.1485,0.1466,0.1512,0.1615,0.1726,0.1875,0.1918,0.1896,0.163,0.1314,0.1093,0.1011,0.1084,0.1031,0.1042,0.1058,0.1069,0.112,0.0867,0.0868,0.087,0.0871,0.0873,0,0.1824,0.1758,0.179,0.1637,0.1565,0.1587,0.1609,0.1676,0.1877,0.1936,0.2056,0.2038,0.187,0.1658,0.1414,0.128,0.1368,0.1236,0.1498,0.1243,0.1299,0.1265,0.1292,0.1075,0.1078,0.108,0.1082,0.1083,0.1819,0.1818,0.1798,0.175,0.173,0.1709,0.1726,0.1875,0.1966,0.2138,0.2176,0.2139,0.2132,0.1911,0.1757,0.1527,0.1575,0.1312,0.1321,0.1636,0.1597,0.1615,0.1631,0.1117,0.1112,0.1109,0.1106,0,0.1837,0.1866,0.1901,0.197,0.1958,0.1936,0.2015,0.2076,0.2165,0.2227,0.2209,0.2385,0.2267,0.22,0.1971,0.1915,0.1725,0.1624,0.1557,0.1494,0.1636,0.165,0.1467,0.1464,0.1462,0.146,0.1458,0,0.1906,0.1936,0.1979,0.1998,0.2015,0.2165,0.2185,0.2296,0.2392,0.2436,0.252,0.2542,0.2437,0.2342,0.2195,0.1966,0.1952,0.1803,0.1744,0.1645,0.1636,0.1807,0.1812,0.1772,0.1773,0.1774,0.1775,0,0.1883,0.2048,0.2073,0.2128,0.2315,0.2313,0.2387,0.2516,0.258,0.2624,0.2629,0.2607,0.2513,0.2363,0.22,0.2205,0.1973,0.1958,0.18,0.1798,0.1596,0.158,0.1777,0.1777,0.1777,0.1777,0.1778,0,0.197,0.2046,0.2124,0.2289,0.233,0.2377,0.2508,0.2612,0.2699,0.271,0.2691,0.2661,0.2594,0.2515,0.2327,0.2358,0.2196,0.2099,0.2089,0.1993,0.1944,0.1674,0.1653,0.1982,0.1984,0.1986,0.1987,0,0.1904,0.2036,0.2144,0.2264,0.2345,0.2446,0.2549,0.2637,0.2681,0.2712,0.2673,0.2633,0.2593,0.2515,0.2454,0.2321,0.2236,0.2323,0.2015,0.2008,0.1941,0.1967,0.1832,0.1693,0.2012,0.2009,0.2007,0,0.1873,0.2055,0.2054,0.2108,0.2272,0.235,0.2468,0.2572,0.2596,0.2613,0.2616,0.2612,0.2526,0.2504,0.2449,0.2368,0.2279,0.2246,0.2238,0.216,0.204,0.2006,0.1986,0.2172,0.2169,0.2167,0.2027,0,0.1918,0.1979,0.2027,0.2161,0.2246,0.2319,0.2428,0.2476,0.2456,0.2474,0.2471,0.2459,0.2407,0.2393,0.2368,0.231,0.2251,0.2196,0.2086,0.215,0.2089,0.2075,0.2212,0.221,0.2208,0.2206,0,0,0.1815,0.1921,0.1997,0.2091,0.2144,0.219,0.2269,0.2329,0.2388,0.2384,0.2331,0.2307,0.2256,0.2268,0.2291,0.2291,0.2199,0.2168,0.2153,0.2149,0.2143,0.2086,0.2074,0.2203,0.2202,0.2201,0.2201,0,0.1854,0.1896,0.1961,0.2043,0.2132,0.2191,0.2202,0.2275,0.2264,0.2332,0.2257,0.2234,0.2206,0.2178,0.2157,0.2268,0.2069,0.221,0.2247,0.2141,0.2139,0.2136,0.208,0.2071,0.2196,0.2196,0.2196,0,0.1828,0.1898,0.1924,0.2054,0.2094,0.219,0.2136,0.2191,0.224,0.2148,0.216,0.2118,0.2073,0.2086,0.2067,0.2017,0.1965,0.1998,0.2009,0.1988,0.1871,0.1872,0.1872,0.1854,0.1853,0.1852,0,0,0.1845,0.1905,0.2012,0.2064,0.2104,0.2141,0.2171,0.2161,0.2186,0.2171,0.2113,0.2055,0.2044,0.2002,0.199,0.2005,0.1922,0.1958,0.1974,0.1988,0.1974,0.1863,0.1865,0.1848,0.1848,0.1848,0,0,0.1839,0.1949,0.194,0.2018,0.2095,0.2172,0.2188,0.217,0.217,0.2115,0.2029,0.2007,0.1995,0.1945,0.1914,0.1882,0.1816,0.1823,0.1896,0.1915,0.1931,0.1916,0.1733,0,0,0,0,0,0.1901,0.1955,0.1948,0.1969,0.2077,0.2198,0.2211,0.2174,0.2085,0.2111,0.2074,0.1931,0.1919,0.1891,0.1878,0.1832,0.1799,0.1808,0.1816,0.1916,0.1937,0.1955,0,0,0,0,0,0,0.191,0.1936,0.1947,0.203,0.2055,0.2194,0.2092,0.2085,0.208,0.2061,0.1959,0.1932,0.187,0.1886,0.1877,0.1834,0.1735,0.1802,0.181,0.1816,0.1923,0.1941,0.1955,0,0,0,0,0,0.1917,0.1938,0.2108,0.2029,0.205,0.2041,0.2084,0.2077,0.205,0.199,0.1962,0.201,0.1878,0.1858,0.188,0.184,0.1741,0.1738,0.1807,0.1813,0.1818,0.1932,0,0,0,0,0,0,0.1922,0.1932,0.2112,0.2119,0.1959,0.2029,0.2034,0.2071,0.1973,0.1955,0.2039,0.2025,0.1884,0.1867,0.1853,0.1847,0.1745,0.1742,0.174,0.1811,0.1816,0.182,0,0,0,0,0,0,0.1921,0.1938,0.2115,0.203,0.2026,0.2018,0.2023,0.2017,0.1965,0.2022,0.2012,0.2032,0.184,0.1875,0.1863,0.1863,0.1748,0.1745,0.1743,0.1742,0.1815,0.1819,0,0,0,0,0,0,0.1928,0.1942,0.2027,0.2025,0.2021,0.2088,0.2004,0.207,0.2033,0.2021,0.2014,0.2005,0.1847,0.1836,0.1872,0.1878,0.1867,0.1748,0.1746,0.1745,0.1744,0,0,0,0,0,0,0,0.1934,0.1838,0.2079,0.202,0.2016,0.2182,0.2183,0.2184,0.2031,0.2023,0.2016,0.2009,0.1763,0.176,0.1757,0.189,0,0,0.1748,0.1747,0,0,0,0,0,0,0,0,0.1832,0.1837,0.2079,0.2081,0.2082,0.2182,0.2183,0.2184,0.203,0.2024,0.2017,0.2012,0.1763,0.176,0.1758,0,0,0,0,0,0,0,0,0,0,0,0,0,0,0,0.2079,0.2081,0,0.2182,0.2183,0.2184,0.2029,0.2024,0.2019,0.2014,0.1762,0.176,0.1758,0,0,0,0,0,0,0,0,0,0,0,0,0,0,0,0,0,0,0,0,0,0,0,0,0,0,0,0,0,0,0,0,0,0,0,0,0,0,0,0,0,0,0,0,0,0,0,0,0,0,0,0,0,0,0,0,0,0,0,0,0,0,0,0,0,0,0,0,0]}]],[[{"header":{"parameterUnit":"kt","parameterCategory":2,"dx":1,"dy":1,"la1":30.253999710083008,"la2":30.299108505249023,"lo1":-89.0895004272461,"lo2":-89.04439544677734,"nx":28,"ny":28,"refTime":"2022-10-13T21:00:00:Z","depth":"4","parameterNumber":2,"parameterNumberName":"U-component_of_CURRENTS"},"data":[-0.0569,-0.0489,-0.0511,-0.0301,-0.0227,-0.0133,-0.0132,-0.0203,-0.0204,-0.032,-0.0373,-0.0476,-0.058,-0.0611,-0.0691,-0.0715,-0.1056,-0.0909,-0.0906,-0.1573,-0.1615,-0.1653,-0.1355,0,0,0,0,0,-0.0675,-0.0639,-0.0548,-0.0424,-0.0345,-0.0313,-0.0273,-0.0286,-0.037,-0.0379,-0.0466,-0.0517,-0.0613,-0.0706,-0.0697,-0.0831,-0.1206,-0.0819,-0.1381,-0.1599,-0.1646,-0.134,0,0,0,0,0,0,-0.0805,-0.0776,-0.0697,-0.0598,-0.0488,-0.0402,-0.039,-0.0326,-0.0377,-0.0589,-0.0551,-0.0741,-0.092,-0.0984,-0.104,-0.1109,-0.12,-0.1326,-0.1384,-0.1432,-0.1141,-0.0761,-0.0691,0,0,0,0,0,-0.0858,-0.0881,-0.0819,-0.0705,-0.0601,-0.0518,-0.0402,-0.0453,-0.0474,-0.0667,-0.0739,-0.0855,-0.101,-0.122,-0.1286,-0.1428,-0.1915,-0.1796,-0.1827,-0.1883,-0.1649,-0.1647,-0.1641,-0.1825,-0.1831,-0.1835,-0.1837,0,-0.0876,-0.087,-0.0795,-0.0722,-0.066,-0.0561,-0.0503,-0.0524,-0.0559,-0.0764,-0.0841,-0.1053,-0.1185,-0.1428,-0.1646,-0.1841,-0.1804,-0.1916,-0.1972,-0.1721,-0.1713,-0.1694,-0.1674,-0.1875,-0.1872,-0.1869,-0.1866,0,-0.0855,-0.0824,-0.078,-0.0689,-0.0647,-0.0593,-0.0518,-0.0567,-0.0694,-0.086,-0.091,-0.1205,-0.1357,-0.1645,-0.202,-0.2032,-0.2187,-0.2103,-0.2234,-0.2246,-0.1762,-0.1726,-0.1937,-0.1923,-0.1912,-0.1902,-0.1894,0,-0.0793,-0.0774,-0.0695,-0.0686,-0.0621,-0.0557,-0.0579,-0.0604,-0.0767,-0.0877,-0.1076,-0.1213,-0.1607,-0.1815,-0.1913,-0.1966,-0.228,-0.1996,-0.2006,-0.2276,-0.224,-0.2365,-0.2335,-0.2604,-0.2602,-0.26,-0.2599,0,-0.0839,-0.0733,-0.0692,-0.0658,-0.0605,-0.0579,-0.0518,-0.0659,-0.0721,-0.0947,-0.1055,-0.1367,-0.1519,-0.174,-0.1821,-0.1811,-0.2217,-0.2304,-0.1982,-0.1948,-0.2344,-0.2317,-0.2596,-0.2596,-0.2596,-0.2595,-0.2594,0,-0.0819,-0.0788,-0.0727,-0.0655,-0.064,-0.059,-0.0641,-0.0623,-0.0851,-0.0879,-0.1064,-0.1178,-0.145,-0.1349,-0.1754,-0.1589,-0.1662,-0.1807,-0.1822,-0.1471,-0.1385,-0.1774,-0.1891,-0.1885,-0.188,-0.1875,-0.187,0,-0.0857,-0.0815,-0.0784,-0.0705,-0.0665,-0.0664,-0.0643,-0.0705,-0.0729,-0.0838,-0.1028,-0.1108,-0.1031,-0.1062,-0.1238,-0.1452,-0.1578,-0.1384,-0.176,-0.177,-0.1376,-0.1403,-0.156,-0.1794,-0.1803,-0.181,-0.1815,0,-0.0905,-0.0867,-0.0861,-0.0826,-0.0777,-0.078,-0.0741,-0.078,-0.0854,-0.0781,-0.0896,-0.0927,-0.0997,-0.1056,-0.1127,-0.1304,-0.1461,-0.1231,-0.1245,-0.1332,-0.1829,-0.1363,-0.1363,-0.1514,-0.1524,-0.1531,-0.1762,0,-0.0914,-0.0886,-0.0883,-0.0846,-0.084,-0.082,-0.0813,-0.0799,-0.073,-0.0755,-0.0837,-0.0892,-0.0967,-0.0954,-0.0942,-0.1151,-0.1086,-0.1148,-0.1219,-0.126,-0.1335,-0.1376,-0.0912,-0.0914,-0.0915,-0.0916,0,0,-0.094,-0.0912,-0.095,-0.0932,-0.0907,-0.0949,-0.0909,-0.0916,-0.0885,-0.0923,-0.0807,-0.0881,-0.0912,-0.1105,-0.1029,-0.1026,-0.1074,-0.097,-0.1182,-0.121,-0.1237,-0.1315,-0.1353,-0.0918,-0.0918,-0.0919,-0.0919,0,-0.094,-0.0944,-0.094,-0.0941,-0.096,-0.0953,-0.0965,-0.0939,-0.0934,-0.0864,-0.0918,-0.0992,-0.0877,-0.1005,-0.1043,-0.1026,-0.1076,-0.0926,-0.0945,-0.1182,-0.1208,-0.1233,-0.1313,-0.1347,-0.0922,-0.0922,-0.0922,0,-0.0939,-0.0946,-0.0944,-0.0958,-0.0967,-0.0944,-0.0988,-0.101,-0.0984,-0.1034,-0.0953,-0.0977,-0.1033,-0.1011,-0.1013,-0.103,-0.1121,-0.1008,-0.1002,-0.1065,-0.1318,-0.1345,-0.1368,-0.1083,-0.1083,-0.1083,0,0,-0.094,-0.0943,-0.0951,-0.0956,-0.096,-0.0978,-0.0993,-0.1003,-0.1019,-0.103,-0.1,-0.1004,-0.1037,-0.1047,-0.1048,-0.105,-0.1179,-0.1025,-0.1018,-0.1011,-0.1069,-0.1317,-0.1341,-0.1084,-0.1084,-0.1085,0,0,-0.0942,-0.0941,-0.094,-0.0937,-0.0961,-0.0974,-0.0988,-0.1003,-0.1025,-0.1021,-0.1039,-0.1046,-0.1046,-0.1068,-0.108,-0.104,-0.1074,-0.1073,-0.1017,-0.1008,-0.1001,-0.1066,-0.1085,0,0,0,0,0,-0.094,-0.0939,-0.0937,-0.0937,-0.0941,-0.0968,-0.0972,-0.0989,-0.0993,-0.1013,-0.1021,-0.1034,-0.1061,-0.1072,-0.108,-0.1042,-0.1098,-0.1096,-0.1094,-0.1022,-0.1012,-0.1004,0,0,0,0,0,0,-0.094,-0.0938,-0.0938,-0.0944,-0.0947,-0.0967,-0.0958,-0.0962,-0.0992,-0.0994,-0.1028,-0.1034,-0.1037,-0.107,-0.1076,-0.1039,-0.1083,-0.1097,-0.1095,-0.1093,-0.1018,-0.101,-0.1004,0,0,0,0,0,-0.094,-0.0939,-0.0937,-0.0945,-0.0947,-0.097,-0.0958,-0.0962,-0.0988,-0.1004,-0.101,-0.1005,-0.1036,-0.1044,-0.1074,-0.1035,-0.1079,-0.1081,-0.1096,-0.1094,-0.1093,-0.1014,0,0,0,0,0,0,-0.0941,-0.0943,-0.0938,-0.094,-0.095,-0.0971,-0.0972,-0.0962,-0.0997,-0.1003,-0.0979,-0.0981,-0.1035,-0.1041,-0.1047,-0.1031,-0.1075,-0.1078,-0.1079,-0.1095,-0.1093,-0.1092,0,0,0,0,0,0,-0.0944,-0.0944,-0.0939,-0.0943,-0.0946,-0.0971,-0.0972,-0.0994,-0.0998,-0.097,-0.0972,-0.098,-0.1038,-0.104,-0.1044,-0.1077,-0.1073,-0.1075,-0.1076,-0.1077,-0.1094,-0.1093,0,0,0,0,0,0,-0.0945,-0.0945,-0.0943,-0.0945,-0.0947,-0.0972,-0.0993,-0.1001,-0.0985,-0.0969,-0.0986,-0.0987,-0.1036,-0.1041,-0.1042,-0.1073,-0.1076,-0.1073,-0.1074,-0.1075,-0.1076,0,0,0,0,0,0,0,-0.0945,-0.0935,-0.0928,-0.0946,-0.0948,-0.0962,-0.0962,-0.0963,-0.0985,-0.0986,-0.0986,-0.0987,-0.106,-0.1062,-0.1065,-0.1069,0,0,-0.1072,-0.1074,0,0,0,0,0,0,0,0,-0.0936,-0.0935,-0.0928,-0.0928,-0.0929,-0.0962,-0.0962,-0.0962,-0.0985,-0.0986,-0.0986,-0.0986,-0.1061,-0.1063,-0.1065,0,0,0,0,0,0,0,0,0,0,0,0,0,0,0,-0.0928,-0.0928,0,-0.0962,-0.0962,-0.0962,-0.0985,-0.0986,-0.0986,-0.0986,-0.1061,-0.1063,-0.1064,0,0,0,0,0,0,0,0,0,0,0,0,0,0,0,0,0,0,0,0,0,0,0,0,0,0,0,0,0,0,0,0,0,0,0,0,0,0,0,0,0,0,0,0,0,0,0,0,0,0,0,0,0,0,0,0,0,0,0,0,0,0,0,0,0,0,0,0,0]}],[{"header":{"parameterUnit":"kt","parameterCategory":2,"dx":1,"dy":1,"la1":30.253999710083008,"la2":30.299108505249023,"lo1":-89.0895004272461,"lo2":-89.04439544677734,"nx":28,"ny":28,"refTime":"2022-10-13T21:00:00:Z","depth":"4","parameterNumber":3,"parameterNumberName":"V-component_of_CURRENTS"},"data":[0.1087,0.121,0.1178,0.1217,0.1288,0.1187,0.1008,0.0697,0.0457,0.0074,0.0059,-0.016,-0.0179,-0.0308,-0.0254,-0.0272,-0.008,-0.0451,-0.0447,-0.0161,-0.0152,-0.0145,-0.0262,0,0,0,0,0,0.0939,0.1034,0.1137,0.1238,0.1209,0.1243,0.0928,0.0717,0.0257,-0.0014,-0.0199,-0.033,-0.0376,-0.0455,-0.0348,-0.0493,-0.0281,-0.0367,-0.0114,-0.0156,-0.0146,-0.0264,0,0,0,0,0,0,0.0801,0.0867,0.1058,0.1189,0.1232,0.111,0.1021,0.0695,0.039,-0.023,-0.0323,-0.0507,-0.0646,-0.059,-0.0542,-0.0457,-0.0323,-0.0194,-0.0183,-0.0174,-0.0274,-0.0311,-0.0313,0,0,0,0,0,0.0639,0.079,0.0873,0.107,0.1175,0.108,0.0982,0.0772,0.027,0.0048,-0.0375,-0.0473,-0.061,-0.0583,-0.0526,-0.0377,-0.0306,-0.0271,-0.026,-0.0134,-0.015,-0.0142,-0.0143,-0.011,-0.0109,-0.0108,-0.0107,0,0.0563,0.065,0.082,0.091,0.1021,0.1064,0.1006,0.0716,0.0425,-0.0074,-0.0284,-0.0452,-0.0633,-0.0576,-0.0555,-0.0373,-0.0319,-0.025,-0.0119,-0.0136,-0.0128,-0.0132,-0.0136,-0.01,-0.01,-0.0101,-0.0102,0,0.055,0.0586,0.0648,0.0692,0.0753,0.0796,0.0646,0.0476,0.0261,-0.0065,-0.0104,-0.0446,-0.0497,-0.0531,-0.0419,-0.035,-0.0257,-0.0211,-0.0201,-0.0193,-0.0118,-0.0125,-0.0087,-0.009,-0.0092,-0.0094,-0.0096,0,0.0474,0.0508,0.0588,0.0634,0.066,0.0516,0.0458,0.031,0.0043,-0.021,-0.0318,-0.049,-0.0436,-0.0496,-0.0349,-0.0277,-0.025,-0.0126,-0.0117,-0.0071,-0.0077,-0.0039,-0.0042,-0.0025,-0.0026,-0.0027,-0.0028,0,0.0472,0.0407,0.045,0.0428,0.0287,0.0326,0.0242,0.0013,-0.0167,-0.0305,-0.0417,-0.0472,-0.0465,-0.0353,-0.0307,-0.0252,-0.0235,-0.0158,-0.0125,-0.0129,-0.0046,-0.0047,-0.0029,-0.0029,-0.0029,-0.003,-0.003,0,0.0379,0.0372,0.0378,0.0254,0.0225,0.0226,0.0042,-0.0096,-0.0305,-0.0362,-0.0423,-0.0472,-0.0492,-0.0381,-0.0318,-0.0337,-0.0206,-0.0164,-0.0159,-0.0226,-0.0223,-0.0025,-0.0084,-0.0085,-0.0086,-0.0087,-0.0088,0,0.0411,0.0376,0.0296,0.024,0.0205,0.0111,-0.0027,-0.0135,-0.0221,-0.0327,-0.035,-0.0411,-0.0349,-0.0325,-0.0306,-0.03,-0.0233,-0.0282,-0.0139,-0.0135,-0.0174,-0.0247,-0.0229,-0.0103,-0.0101,-0.0099,-0.0099,0,0.0415,0.0323,0.034,0.0321,0.022,0.0167,0.0043,-0.0086,-0.0159,-0.0157,-0.025,-0.0322,-0.0269,-0.0318,-0.034,-0.0315,-0.0252,-0.0236,-0.0234,-0.0134,-0.0149,-0.025,-0.025,-0.0233,-0.0232,-0.0232,-0.0109,0,0.0396,0.0373,0.035,0.027,0.0197,0.0182,0.0086,0.0041,0.0055,0.0002,-0.0074,-0.0103,-0.0167,-0.0201,-0.0216,-0.0268,-0.0219,-0.0222,-0.0138,-0.0208,-0.0151,-0.0143,-0.0218,-0.0217,-0.0216,-0.0215,0,0,0.0472,0.0404,0.0343,0.03,0.0265,0.0236,0.0195,0.0124,0.008,0.0046,0.0122,-0.0017,-0.0023,-0.0176,-0.0198,-0.023,-0.0176,-0.0147,-0.0205,-0.0205,-0.0204,-0.015,-0.0144,-0.0214,-0.0213,-0.0213,-0.0213,0,0.0455,0.0412,0.0374,0.032,0.0285,0.0226,0.0229,0.018,0.0169,0.0115,0.0103,0.0075,0.0011,-0.0051,-0.0096,-0.0212,-0.01,-0.0215,-0.0224,-0.0199,-0.02,-0.02,-0.0148,-0.0143,-0.0211,-0.0211,-0.0211,0,0.0479,0.0439,0.041,0.0314,0.0272,0.0201,0.0223,0.0208,0.0157,0.0185,0.0142,0.0126,0.0064,-0.0001,-0.0014,0.0019,-0.0024,-0.0041,-0.0048,-0.0018,0.0013,0.0009,0.0007,0.0058,0.006,0.0061,0,0,0.0486,0.0443,0.0361,0.031,0.0283,0.0231,0.0197,0.0213,0.0174,0.0168,0.0171,0.016,0.0095,0.01,0.0061,0.0009,0.0057,-0.0005,-0.0018,-0.0028,-0.0004,0.0023,0.0018,0.0065,0.0065,0.0066,0,0,0.0493,0.0418,0.0413,0.0345,0.0278,0.0196,0.0171,0.0168,0.0133,0.0194,0.0189,0.0194,0.0159,0.0159,0.0213,0.0115,0.0161,0.015,0.0143,0.0127,0.0114,0.0157,0.0299,0,0,0,0,0,0.0467,0.0421,0.0416,0.0399,0.0284,0.0186,0.0168,0.0161,0.0214,0.0181,0.0181,0.0253,0.0171,0.022,0.0219,0.0211,0.0124,0.0114,0.0104,0.008,0.0063,0.0049,0,0,0,0,0,0,0.046,0.0438,0.0417,0.0336,0.031,0.0187,0.0237,0.0231,0.0218,0.0227,0.024,0.0251,0.026,0.0226,0.0223,0.0215,0.03,0.012,0.0111,0.0103,0.0074,0.0061,0.0049,0,0,0,0,0,0.0454,0.0436,0.0267,0.0335,0.0313,0.0281,0.0242,0.0237,0.0231,0.0233,0.0243,0.024,0.0256,0.026,0.0225,0.0215,0.0302,0.0301,0.0114,0.0107,0.0101,0.0068,0,0,0,0,0,0,0.045,0.0411,0.0261,0.0252,0.0388,0.0289,0.0277,0.0243,0.0242,0.0246,0.0233,0.024,0.0252,0.0256,0.0259,0.0213,0.0304,0.0303,0.0302,0.0109,0.0104,0.0099,0,0,0,0,0,0,0.0421,0.0404,0.0256,0.0323,0.0322,0.0296,0.0285,0.0258,0.0246,0.0242,0.0247,0.0238,0.0304,0.0252,0.0255,0.0206,0.0305,0.0304,0.0304,0.0303,0.0105,0.01,0,0,0,0,0,0,0.0413,0.0398,0.0325,0.0324,0.0323,0.022,0.0276,0.0191,0.0206,0.0245,0.022,0.0226,0.0303,0.0302,0.0251,0.0201,0.0205,0.0305,0.0305,0.0304,0.0304,0,0,0,0,0,0,0,0.0406,0.0518,0.032,0.0324,0.0324,0.0174,0.0171,0.0168,0.0208,0.0213,0.0218,0.0223,0.0312,0.0311,0.0309,0.0197,0,0,0.0306,0.0305,0,0,0,0,0,0,0,0,0.0523,0.0519,0.032,0.0318,0.0317,0.0174,0.0171,0.0168,0.0209,0.0213,0.0217,0.0221,0.0311,0.031,0.0309,0,0,0,0,0,0,0,0,0,0,0,0,0,0,0,0.032,0.0319,0,0.0173,0.0171,0.0169,0.0209,0.0213,0.0216,0.022,0.0311,0.031,0.0309,0,0,0,0,0,0,0,0,0,0,0,0,0,0,0,0,0,0,0,0,0,0,0,0,0,0,0,0,0,0,0,0,0,0,0,0,0,0,0,0,0,0,0,0,0,0,0,0,0,0,0,0,0,0,0,0,0,0,0,0,0,0,0,0,0,0,0,0,0]}]]]